Tracking 29040 objects as of 15-Jun-2024
HD Live streaming from Space Station
objects crossing your sky now

AUREOLE 2

Track AUREOLE 2 now!
10-day predictions
AUREOLE 2 is classified as:


NORAD ID: 7003
Int'l Code: 1973-107A
Perigee: 360.1 km
Apogee: 739.3 km
Inclination: 73.9 °
Period: 95.5 minutes
Semi major axis: 6920 km
RCS: 2.1042 m2 (large)
Launch date: December 26, 1973
Source: France (FR)
Launch site: PLESETSK MISSILE AND SPACE COMPLEX (PKMTR)
Your satellite tracking list
Your tracking list is empty




NASA's NSSDC Master Catalog

Two Line Element Set (TLE):
1 07003U 73107A   24166.90043456  .00022446  00000-0  59933-3 0  9998
2 07003  73.9148 322.1431 0273924  79.4837 283.7087 15.07923450592080
Source of the keplerian elements: AFSPC